Location: Paris
(48.6709°N, 2.3750°E)
Time: 06:55:24
(UTC+02:00)

M-CUBED/EXP-1 PRIME - Visible Passes

Search period start: 26 June 2022 00:00
Search period end: 06 July 2022 00:00
Orbit: 423 x 634 km, 101.7° (Epoch: 25 June)

Date Brightness Start Highest point End Pass type
(mag) Time Alt. Az. Time Alt. Az. Time Alt. Az.
26 Jun ? 01:31:44 10° E 01:33:39 15° NE 01:35:36 10° NNE visible
26 Jun ? 03:06:41 37° SW 03:07:14 41° WSW 03:10:22 10° NNW visible
27 Jun ? 01:21:42 10° ENE 01:22:48 11° NE 01:23:54 10° NNE visible
27 Jun ? 02:55:29 46° SSW 02:56:14 63° WSW 02:59:29 10° NNW visible
28 Jun ? 02:44:16 44° SSE 02:45:12 86° ENE 02:48:31 10° NNW visible
29 Jun ? 02:33:02 34° SE 02:34:12 58° ENE 02:37:30 10° NNW visible
30 Jun ? 02:21:47 25° ESE 02:23:13 40° ENE 02:26:23 10° N visible
30 Jun ? 03:57:02 14° WSW 03:57:21 14° W 03:59:13 10° WNW visible
01 Jul ? 02:10:32 18° ESE 02:12:15 28° ENE 02:15:12 10° N visible
01 Jul ? 03:45:47 19° WSW 03:46:13 20° W 03:48:44 10° NW visible
02 Jul ? 01:59:15 13° ESE 02:01:17 21° ENE 02:03:56 10° N visible
02 Jul ? 03:34:30 26° WSW 03:35:04 28° WSW 03:38:01 10° NW visible
03 Jul ? 01:48:13 10° E 01:50:21 16° NE 01:52:32 10° NNE visible
03 Jul ? 03:23:13 35° SW 03:23:55 41° WSW 03:27:10 10° NNW visible
04 Jul ? 01:37:57 10° E 01:39:25 12° NE 01:40:55 10° NNE visible
04 Jul ? 03:11:55 42° SSW 03:12:48 61° WSW 03:16:13 10° NNW visible
05 Jul ? 03:00:36 40° SSE 03:01:42 90° ENE 03:05:11 10° NNW visible
